www.pogodaiklimat.ru

Погода и климат >> Архив погоды >> Россия >> Псковская область >> Гдов


ПОГОДА в Гдове

  • Прогноз погоды в Гдове
  • Монитор погоды в Гдове

АРХИВ ПОГОДЫ в Гдове

Время (UTC), дата Ветер
(напр.,м/с)
 
Видим.   Явления Облачность Т
(С)
Тd
(С)
f
(%)
Тe
(С)
Тes
(С)
Комфортность P
(гПа)
Po
(гПа)
Тmin
(С)
Tmax
(С)
R
(мм)
R24
(мм)
S
(см)
03 17.02 З 4 20 км ясно -0.3 -1.7 90 -6 -6 1006.1 1001.0 -0.4
06 17.02 З 4 20 км ясно -1.6 -3.8 85 -7 -7 1007.8 1002.7 -1.8 14
09 17.02 З 4 20 км ясно +0.8 -2.6 78 -4 -3 1010.4 1005.3
12 17.02 З 4 20 км ясно +2.1 -2.5 72 -3 -1 1013.0 1007.9
15 17.02 СЗ 5 20 км 1/0
[Ci fib]
+0.2 -3.5 76 -6 -6 1015.5 1010.4
18 17.02 СЗ 4 20 км ясно -1.2 -4.2 80 -7 -7 1018.2 1013.0 +2.3
21 17.02 С 2 20 км ясно -2.9 -5.1 85 -7 -7 1020.1 1014.9
00 18.02 ЮЗ 1 20 км ясно -9.4 -9.7 98 -12 -12 1022.3 1016.9
03 18.02 штиль 0 20 км 8/0
[Ac trans Ci fib]
-8.1 -8.3 98 -9 -9 1023.3 1018.0 -10.0
06 18.02 В 1 20 км 8/3 1000 м
[Sc Ac trans Ci fib]
-9.6 -10.1 96 -12 -12 1024.6 1019.2 -11.2 14
09 18.02 Ю 1 20 км 3/0
[Ac trans]
-2.2 -6.8 71 -4 -2 1024.6 1019.4
12 18.02 Ю 4 20 км 9/0
[Ac trans Ci fib]
-0.1 -8.5 53 -5 -4 1022.6 1017.4
15 18.02 Ю 4 20 км 10/0
[Ac trans Ci fib]
-0.5 -8.1 56 -5 -5 1019.9 1014.7
18 18.02 Ю 6 20 км 4/4 1000 м
[Sc]
-0.1 -7.7 57 -6 -6 1017.1 1012.0 +0.5
21 18.02 Ю 6 20 км 8/0
[Ac trans Ci fib]
-0.3 -5.1 70 -7 -7 1014.4 1009.3
00 19.02 Ю 6
{10}
20 км 9/9 300 м
[St]
-0.3 -2.0 88 -7 -7 1012.4 1007.3
03 19.02 ЮЗ 4 10 км 10/10 300 м
[St]
+1.3 +0.6 95 -4 -4 1010.5 1005.4 -0.9
06 19.02 Ю 5 4000 м дымка 10/10 200 м
[St]
+1.6 +1.3 98 -4 -4 1008.8 1003.7 -0.6 14
09 19.02 Ю 6 4000 м дымка 10/10 300 м
[St]
+2.2 +1.3 94 -4 -4 1006.8 1001.8
12 19.02 Ю 6
{10}
4000 м дымка 10/10 300 м
[St]
+2.2 +0.9 91 -4 -4 1003.9 998.9
15 19.02 Ю 6 4000 м дымка 10/10 300 м
[St]
+2.5 +1.0 90 -4 -4 1000.5 995.5
18 19.02 Ю 7
{11}
10 км 10/10 1000 м
[Sc]
+2.9 +1.0 87 -3 -3 997.2 992.2 +3.1
21 19.02 ЮЗ 4
{11}
4000 м дымка {ливн. осадки} 10/10 300 м
[St]
+1.6 +1.2 97 -4 -4 996.4 991.4
00 20.02 ЮЗ 5 4000 м дымка {ливн. осадки} 10/10 200 м
[St]
+1.7 +1.4 98 -4 -4 995.3 990.3
03 20.02 ЮЗ 4 20 км 10/10 200 м
[St]
+1.5 +1.2 98 -4 -4 994.2 989.2 +1.2 0.6
06 20.02 ЮЗ 4 10 км {ливн. осадки} 10/10 200 м
[St]
+1.4 +1.4 100 -4 -4 993.4 988.4 +1.2 0.9 10
09 20.02 ЮЗ 4 20 км 10/10 300 м
[St]
+1.5 +1.2 98 -4 -4 993.2 988.2
12 20.02 З 4 20 км {ливн. осадки} 9/9 600 м
[Cb calv]
+1.1 +0.5 96 -4 -4 993.7 988.7
15 20.02 СЗ 6-11
{13}
10 км в посл. час ливневой снег 10/10 600 м
[Cb calv]
-1.8 -4.3 83 -9 -9 997.8 992.7 2
18 20.02 СЗ 5-11
{12}
2000 м слаб. ливневой снег {метель} 10/10 300 м
[Cb cap]
-3.8 -4.8 93 -11 -11 1001.4 996.3 +1.7 1
21 20.02 СЗ 5
{12}
2000 м слаб. ливневой снег {метель} 9/9 300 м
[Cb cap]
-4.9 -6.3 90 -12 -12 1005.1 999.9
00 21.02 СЗ 6-11
{12}
2000 м слаб. ливневой снег {метель} 9/9 600 м
[Cb cap]
-5.3 -6.6 91 -13 -13 1008.1 1002.9
03 21.02 С 5-11
{12}
20 км позёмок {ливн. осадки} 1/1 300 м
[St]
-5.6 -9.0 77 -13 -13 1011.6 1006.4 -5.7 0.8
06 21.02 С 4
{13}
20 км {ливн. осадки, метель} 10/8 1000 м
[Sc Ac trans Ci fib]
-5.9 -11.0 67 -12 -12 1014.9 1009.7 -5.9 0.6 7
09 21.02 С 5 20 км 1/1 1000 м
[Sc]
-4.3 -11.5 57 -11 -10 1017.8 1012.6
12 21.02 С 6 20 км 1/1 1000 м
[Sc]
-3.7 -13.2 48 -11 -10 1020.2 1015.0
15 21.02 С 5 10 км ясно -5.2 -14.3 49 -12 -12 1022.8 1017.5
18 21.02 С 3
{11}
20 км ясно -7.0 -15.2 52 -12 -12 1025.2 1019.9 -3.6
21 21.02 С 2 20 км ясно -9.1 -14.3 66 -13 -13 1028.2 1022.8
00 22.02 С 2 20 км ясно -9.5 -12.9 76 -14 -14 1030.5 1025.1
03 22.02 С 2 20 км ясно -10.8 -12.3 89 -15 -15 1032.9 1027.5 -10.8
06 22.02 С 2 20 км ясно -9.8 -11.2 89 -14 -14 1035.2 1029.8 -10.8 7
09 22.02 С 4 20 км ясно -4.9 -11.6 59 -11 -9 1038.3 1033.0
12 22.02 С 4 20 км ясно -2.4 -12.9 44 -8 -6 1039.9 1034.6
15 22.02 С 3 20 км 3/0
[Ci fib]
-4.0 -10.7 60 -9 -9 1040.6 1035.3
18 22.02 С 1 10 км ясно -7.9 -11.1 78 -10 -10 1041.3 1035.9 -2.2
21 22.02 ЮЗ 1 20 км 3/0
[Ci fib]
-13.1 -14.1 92 -15 -15 1041.0 1035.5
00 23.02 ЮЗ 3 20 км ясно -8.6 -11.9 77 -14 -14 1039.2 1033.8
03 23.02 ЮЗ 5 20 км 9/9 1000 м
[Sc]
-6.0 -10.2 72 -13 -13 1036.1 1030.7 -14.7
06 23.02 ЮЗ 7 2000 м слаб. ливневой снег 10/10 600 м
[Cb cap]
-4.4 -5.0 96 -13 -13 1032.1 1026.8 -14.7 0.6 8
09 23.02 ЮЗ 4
{10}
10 км {ливн. осадки, морось} [диам. гололёда 2 мм] 10/10 300 м
[St]
-1.5 -2.0 96 -7 -7 1029.6 1024.4
12 23.02 З 4
{10}
10 км {ливн. осадки, морось} [диам. гололёда 2 мм] 10/10 200 м
[St]
0.0 -0.3 98 -6 -6 1028.0 1022.8
15 23.02 З 4 10 км 10/10 200 м
[St]
+0.5 +0.2 98 -5 -5 1027.5 1022.3 2
18 23.02 З 4 2000 м дымка 10/10 100 м
[St]
+0.5 +0.5 100 -5 -5 1027.6 1022.4 +0.6 0.9
21 23.02 З 3 2000 м дымка 10/10 100 м
[St]
+0.6 +0.6 100 -4 -4 1027.1 1021.9
00 24.02 З 3 1000 м дымка 10/10 100 м
[St]
+0.5 +0.5 100 -4 -4 1026.6 1021.4

 

Местоположение метеостанции Гдов (Псковская область, Россия): широта 58.73 долгота 27.83 высота над уровнем моря 41 м.

В архиве по умолчанию представлена погода в Гдове за последнюю неделю. Архивные данные за месяц целиком и за предыдущие месяцы, начиная с января 2011 года, Вы можете получить, выбрав интересующий диапазон дат из раскрывающегося списка и нажав кнопку "Ввод!".


*Определитесь, кто Вы:
робот инопланетянин человек

Внимание! Время в таблицах - всемирное. Для получения местного времени необходимо прибавить поправку, которая равна 3 ч.

Смотрите также архив погоды в соседних городах и на ближайших метеорологических станциях:

Погода в Сланцах (Ленинградская область, Россия) (46 км)
Погода в Тиирикое (Эстония) (53 км)
Погода в Йохви (Эстония) (72 км)
Погода в Нарве (Эстония) (73 км)
Погода в Тарту (Эстония) (80 км)
Погода в Йыгеве (Эстония) (81 км)
Погода в Кингисеппе (Ленинградская область, Россия) (84 км)
Погода в Стругах-Красных (Псковская область, Россия) (90 км)
Погода в Вяйке-Маарье (Эстония) (102 км)
Погода в Пскове (Псковская область, Россия) (105 км)

Пояснения к столбцам:

Ветер - указаны скорость ветра в м/с - средняя за 10 мин, порывы в срок и между сроками (в фигурных скобках) и направление, откуда дует ветер: С - северный, СВ - северо-восточный, В - восточный, ЮВ - юго-восточный, Ю - южный, ЮЗ - юго-западный, З - западный, СЗ - северо-западный.
Видимость - горизонтальная дальность видимости в метрах или километрах. При видимости от 1 до 10 км при отсутствии осадков обычно наблюдается дымка, при ухудшении видимости до 1 км и менее - туман. В сухую погоду видимость может ухудшаться дымом, пылью или мглою.
Явления - указаны атмосферные явления, наблюдавшиеся в срок или в последний час перед сроком; фигурными скобками обозначены явления, наблюдавшиеся между сроками (за 1-3 часа до срока); квадратными скобками обозначены град или гололедные отложения с указанием их диаметра в мм.
Облачность - указаны через наклонную черту общая и нижняя облачность в баллах и высота нижней границы облаков в метрах; квадратными скобками обозначены формы облаков: Ci - перистые, Cs - перисто-слоистые, Cc - перисто-кучевые, Ac - высококучевые, As - высокослоистые, Sc - слоисто-кучевые, Ns - слоисто-дождевые, Cu - кучевые, Cb - кучево-дождевые. Подробнее классификацию облаков см. в Атласе облаков (PDF).
T - Температура воздуха - температура, измеренная на высоте 2 м над землей.
Td - Температура точки росы - температура, при понижении до которой содержащийся в воздухе водяной пар достигнет насыщения.
f - Относительная влажность воздуха - влажноcть воздуха, измеренная на высоте 2 м над землей.
Te - Эффективная температура - температура, которую ощущает одетый по сезону человек в тени. Характеристика душности погоды. При расчете учитывается влияние влажности воздуха и скорости ветра на теплоощущения человека.
Tes - Эффективная температура на солнце - температура, которую ощущает человек, с поправкой на солнечный нагрев. Характеристика знойности погоды. Зависит от высоты солнца над горизонтом, облачности и скорости ветра. Ночью, в пасмурную погоду, а также при ветре 12 м/с и более поправка равна нулю.
P - Атмосферное давление - приведенное к уровню моря атмосферное давление.
Po - Атмосферное давление - измеренное на уровне метеостанции атмосферное давление.
Tmin - Минимальная температура - минимум температуры воздуха на высоте 2 м над землей.
Tmax - Максимальная температура - максимум температуры воздуха на высоте 2 м над землей.
R - Количество осадков - Количество выпавших осадков за период времени, мм. При наведении курсора мыши на число - период времени, за который выпало указанное количество осадков.
R24 - Количество осадков - Количество выпавших осадков за 24 часа, мм.
S - Снежный покров - Высота снежного покрова, см. При наведении курсора мыши на число - состояние снежного покрова и степень покрытия местности в баллах.